Regional Weather Roundup
Issued by NWS Northern Indiana

Home | Current Version | Previous Version | Text Only | Print | Product List | Glossary Off
Versions: 1 2 3 4 5 6 7 8 9 10 11 12 13 14 15 16 17 18 19 20 21 22 23 24 25 26 27 28 29 30 31 32 33 34 35 36 37 38 39 40 41 42 43 44 45 46 47 48 49 50

000
ASUS43 KIWX 201710
RWRIWX

KIWX WEATHER ROUNDUP
NATIONAL WEATHER SERVICE NORTHERN INDIANA
100 PM EDT WED AUG 20 2014

NOTE: "FAIR" INDICATES FEW OR NO CLOUDS BELOW 12,000 FEET WITH NO
SIGNIFICANT WEATHER AND/OR OBSTRUCTIONS TO VISIBILITY.

* THESE STATIONS ARE NOT UNDER NWS QUALITY CONTROL. THEY ALSO MAY NOT
  REPORT WEATHER SUCH AS PRECIPITATION OR FOG.

INZ001>027-201800-
NORTHERN INDIANA

CITY           SKY/WX    TMP DP  RH WIND       PRES   REMARKS
GARY*          PTSUNNY   82  64  54 W14       29.92
VALPARAISO     MOSUNNY   81  66  60 W12       29.94R
MICHIGAN CITY* MOSUNNY   81  61  50 W7        29.93R
LAPORTE*       PTSUNNY   80  65  61 W6        29.94R
KNOX*          MOSUNNY   81  65  58 W10       29.93R
SOUTH BEND       N/A    N/A N/A N/A MISG      29.93
GOSHEN         MOSUNNY   82  64  54 SW14      29.92R
MONTICELLO*    MOSUNNY   80  68  65 SW8       29.95R
LOGANSPORT*    SUNNY     81  63  54 W14       29.96R
ROCHESTER*     SUNNY     84  66  54 W9        29.95R
WARSAW*        SUNNY     81  64  57 W8        29.93R
ANGOLA*        PTSUNNY   81  66  61 W8        29.91R
FORT WAYNE     PTSUNNY   79  65  62 W12       29.93S
HUNTINGTON*    PTSUNNY   80  67  64 W10       29.94R
PERU/GRISSOM   SUNNY     82  70  67 W15       29.96R
MARION*        MOSUNNY   81  63  54 W12G17    29.96R

$$
INZ028>050-201800-
CENTRAL INDIANA

CITY           SKY/WX    TMP DP  RH WIND       PRES   REMARKS
LAFAYETTE      PTSUNNY   80  67  64 SW6       29.95R
KOKOMO*        MOSUNNY   82  66  57 W15       29.96R
MUNCIE*        MOSUNNY   82  66  58 W13G20    29.95S
INDIANAPOLIS   PTSUNNY   82  67  60 W10       29.95F

$$
MIZ043>046-050>051-056>058-064>065-071>073-077>080-201800-
SOUTHWEST LOWER MICHIGAN

CITY           SKY/WX    TMP DP  RH WIND       PRES   REMARKS
BATTLE CREEK   PTSUNNY   78  62  57 W9        29.90S
BENTON HARBOR  SUNNY     77  65  66 W10       29.91R
COLDWATER*     MOSUNNY   82  65  58 W12       29.90S
HILLSDALE*     PTSUNNY   80  65  61 SW7       29.90F
HOLLAND        SUNNY     77  67  71 W9        29.90S
GRAND RAPIDS   PTSUNNY   76  67  73 W9        29.88R
KALAMAZOO      PTSUNNY   79  62  56 W9        29.89S
STURGIS*       MOSUNNY   81  64  57 W8G16     29.90R
THREE RIVERS*  PTSUNNY   79  65  62 W6        29.90S

$$
OHZ001>008-015>018-024>025-201800-
NORTHWEST OHIO

CITY           SKY/WX    TMP DP  RH WIND       PRES   REMARKS
WAUSEON*       PTSUNNY   81  68  65 W7G17     29.89F
DEFIANCE       MOSUNNY   80  65  59 VRB6      29.90S
FINDLAY        MOSUNNY   82  68  62 SW12      29.91R
TOLEDO EXPRESS MOSUNNY   81  67  62 W10       29.89R
TOLEDO METCALF MOSUNNY   81  67  62 SW13      29.89S
LIMA           MOSUNNY   81  68  64 W13       29.93S

$$
&&


USA.gov is the U.S. government's official web portal to all federal, state and local government web resources and services.